Pontiac, IL

12:18 PM CDT on April 22, 2018 (GMT -0500)
Pontiac Municipal

Weather History for KPNT - November, 2013

Change the Weather History Date:

Tuesday, November 12, 2013

  Actual Average Record
Temperature  
Mean Temperature 27 °F -  
Max Temperature 33 °F 48 °F 73 °F (1964)
Min Temperature 21 °F 32 °F 12 °F (1911)
Degree Days  
Heating Degree Days 38    
Moisture  
Dew Point 20 °F    
Average Humidity 77    
Maximum Humidity 86    
Minimum Humidity 60    
Precipitation  
Precipitation 0.00 in - - ()
Sea Level Pressure  
Sea Level Pressure 30.65 in    
Wind  
Wind Speed 11 mph (NW)    
Max Wind Speed 15 mph    
Max Gust Speed 18 mph    
Visibility 10 miles    
Events      
Averages and records for this station are not official NWS values.
T = Trace of Precipitation, MM = Missing Value Source: NWS Daily Summary

Daily Weather History Graph

Daily Weather History Graph

Search for Another Location

Airport or City:

Astronomy

Nov. 12, 2013 Rise Set
Actual Time 6:38 AM CST 4:38 PM CST
Civil Twilight 6:09 AM CST 5:07 PM CST
Nautical Twilight 5:36 AM CST 5:40 PM CST
Astronomical Twilight 5:03 AM CST 6:13 PM CST
Moon 1:54 PM CST (11/12) 1:25 AM CST (11/12)
Length of Visible Light 10h 58m
Length of Day
9h 59m
Waxing Gibbous, 76% of the Moon is Illuminated
Nov 12
Waxing Gibbous
Nov 17
Full
Nov 25
Last Quarter
Dec 2
New
Dec 9
First Quarter

Hourly Weather History & Observations

Time (CST) Temp. Windchill Dew Point Humidity Pressure Visibility Wind Dir Wind Speed Gust Speed Precip Events Conditions
12:15 AM 26.6 °F 14.7 °F 17.6 °F 69% 30.52 in 10.0 mi North 15.0 mph - N/A   Clear
12:35 AM 26.6 °F 14.7 °F 17.6 °F 69% 30.52 in 10.0 mi North 15.0 mph - N/A   Clear
12:55 AM 24.8 °F 12.9 °F 17.6 °F 74% 30.52 in 10.0 mi NNW 13.8 mph - N/A   Clear
1:15 AM 24.8 °F 13.4 °F 17.6 °F 74% 30.53 in 10.0 mi NNW 12.7 mph - N/A   Clear
1:35 AM 24.8 °F 14.0 °F 17.6 °F 74% 30.53 in 10.0 mi NNW 11.5 mph - N/A   Clear
1:55 AM 23.0 °F 13.1 °F 17.6 °F 80% 30.54 in 10.0 mi NNW 9.2 mph - N/A   Clear
2:15 AM 23.0 °F 13.1 °F 17.6 °F 80% 30.55 in 10.0 mi NNW 9.2 mph - N/A   Clear
2:35 AM 23.0 °F 12.4 °F 17.6 °F 80% 30.55 in 10.0 mi NNW 10.4 mph - N/A   Clear
2:55 AM 23.0 °F 12.4 °F 17.6 °F 80% 30.56 in 10.0 mi NNW 10.4 mph - N/A   Clear
3:15 AM 23.0 °F 12.4 °F 17.6 °F 80% 30.57 in 10.0 mi NNW 10.4 mph - N/A   Clear
3:35 AM 21.2 °F 9.5 °F 17.6 °F 86% 30.58 in 10.0 mi NNW 11.5 mph - N/A   Clear
3:55 AM 21.2 °F 10.1 °F 17.6 °F 86% 30.58 in 10.0 mi NNW 10.4 mph - N/A   Clear
4:15 AM 21.2 °F 10.1 °F 17.6 °F 86% 30.60 in 10.0 mi NNW 10.4 mph - N/A   Clear
4:35 AM 21.2 °F 9.5 °F 17.6 °F 86% 30.60 in 10.0 mi NNW 11.5 mph - N/A   Clear
4:55 AM 21.2 °F 8.9 °F 17.6 °F 86% 30.60 in 10.0 mi NNW 12.7 mph - N/A   Clear
5:15 AM 21.2 °F 10.1 °F 17.6 °F 86% 30.61 in 10.0 mi NNW 10.4 mph - N/A   Clear
5:35 AM 21.2 °F 9.5 °F 17.6 °F 86% 30.63 in 10.0 mi NNW 11.5 mph - N/A   Clear
5:55 AM 21.2 °F 8.9 °F 17.6 °F 86% 30.64 in 10.0 mi NNW 12.7 mph - N/A   Clear
6:15 AM 21.2 °F 9.5 °F 17.6 °F 86% 30.64 in 10.0 mi NNW 11.5 mph - N/A   Clear
6:35 AM 21.2 °F 10.9 °F 17.6 °F 86% 30.65 in 10.0 mi NNW 9.2 mph - N/A   Clear
6:55 AM 21.2 °F 10.1 °F 17.6 °F 86% 30.67 in 10.0 mi NNW 10.4 mph - N/A   Clear
7:15 AM 21.2 °F 11.7 °F 17.6 °F 86% 30.67 in 10.0 mi NNW 8.1 mph - N/A   Clear
7:35 AM 21.2 °F 10.9 °F 17.6 °F 86% 30.68 in 10.0 mi NNW 9.2 mph - N/A   Clear
7:55 AM 23.0 °F 12.4 °F 17.6 °F 80% 30.68 in 10.0 mi NNW 10.4 mph - N/A   Clear
8:15 AM 23.0 °F 11.1 °F 17.6 °F 80% 30.69 in 10.0 mi NNW 12.7 mph - N/A   Clear
8:35 AM 24.8 °F 13.4 °F 17.6 °F 74% 30.70 in 10.0 mi NNW 12.7 mph - N/A   Clear
8:55 AM 24.8 °F 13.4 °F 19.4 °F 80% 30.70 in 10.0 mi NNW 12.7 mph - N/A   Clear
9:15 AM 24.8 °F 13.4 °F 19.4 °F 80% 30.71 in 10.0 mi NNW 12.7 mph - N/A   Clear
9:35 AM 26.6 °F 16.2 °F 19.4 °F 74% 30.72 in 10.0 mi NNW 11.5 mph - N/A   Clear
9:55 AM 26.6 °F 15.7 °F 19.4 °F 74% 30.71 in 10.0 mi NNW 12.7 mph - N/A   Clear
10:15 AM 28.4 °F 19.1 °F 21.2 °F 74% 30.71 in 10.0 mi NNW 10.4 mph - N/A   Clear
10:35 AM 28.4 °F 18.5 °F 21.2 °F 74% 30.71 in 10.0 mi NNW 11.5 mph - N/A   Clear
10:55 AM 28.4 °F 18.0 °F 21.2 °F 74% 30.71 in 10.0 mi NNW 12.7 mph - N/A   Clear
11:15 AM 30.2 °F 20.2 °F 21.2 °F 69% 30.71 in 10.0 mi NNW 12.7 mph - N/A   Clear
11:35 AM 30.2 °F 21.9 °F 19.4 °F 64% 30.70 in 10.0 mi NNW 9.2 mph - N/A   Clear
11:55 AM 30.2 °F 21.3 °F 21.2 °F 69% 30.70 in 10.0 mi NNW 10.4 mph - N/A   Clear
12:15 PM 30.2 °F 21.9 °F 21.2 °F 69% 30.70 in 10.0 mi NW 9.2 mph - N/A   Scattered Clouds
12:35 PM 32.0 °F 23.0 °F 21.2 °F 64% 30.70 in 10.0 mi NNW 11.5 mph 17.3 mph N/A   Clear
12:55 PM 32.0 °F 22.5 °F 21.2 °F 64% 30.69 in 10.0 mi NNW 12.7 mph 16.1 mph N/A   Clear
1:15 PM 32.0 °F 24.2 °F 21.2 °F 64% 30.69 in 10.0 mi NNW 9.2 mph - N/A   Scattered Clouds
1:35 PM 33.8 °F 26.4 °F 23.0 °F 65% 30.68 in 10.0 mi WNW 9.2 mph 16.1 mph N/A   Mostly Cloudy
1:55 PM 33.8 °F 24.8 °F 24.8 °F 70% 30.68 in 10.0 mi WNW 12.7 mph 17.3 mph N/A   Mostly Cloudy
2:15 PM 33.8 °F 25.8 °F 24.8 °F 70% 30.69 in 10.0 mi WNW 10.4 mph - N/A   Scattered Clouds
2:35 PM 33.8 °F 25.3 °F 24.8 °F 70% 30.68 in 10.0 mi WNW 11.5 mph 18.4 mph N/A   Mostly Cloudy
2:55 PM 33.8 °F 25.3 °F 23.0 °F 65% 30.68 in 10.0 mi NW 11.5 mph - N/A   Scattered Clouds
3:15 PM 33.8 °F 24.8 °F 23.0 °F 65% 30.68 in 10.0 mi WNW 12.7 mph - N/A   Clear
3:35 PM 33.8 °F 25.3 °F 21.2 °F 60% 30.68 in 10.0 mi NW 11.5 mph - N/A   Clear
3:55 PM 32.0 °F 22.5 °F 21.2 °F 64% 30.66 in 10.0 mi WNW 12.7 mph - N/A   Clear
4:15 PM 32.0 °F 23.6 °F 21.2 °F 64% 30.66 in 10.0 mi WNW 10.4 mph - N/A   Clear
4:35 PM 30.2 °F 22.6 °F 21.2 °F 69% 30.66 in 10.0 mi WNW 8.1 mph - N/A   Clear
4:55 PM 30.2 °F 23.4 °F 21.2 °F 69% 30.66 in 10.0 mi WNW 6.9 mph - N/A   Clear
5:15 PM 28.4 °F 22.2 °F 21.2 °F 74% 30.67 in 10.0 mi WNW 5.8 mph - N/A   Clear
5:35 PM 28.4 °F 22.2 °F 21.2 °F 74% 30.66 in 10.0 mi WNW 5.8 mph - N/A   Clear
5:55 PM 28.4 °F 24.6 °F 21.2 °F 74% 30.67 in 10.0 mi WNW 3.5 mph - N/A   Clear
6:15 PM 26.6 °F 20.0 °F 21.2 °F 80% 30.66 in 10.0 mi West 5.8 mph - N/A   Clear
6:35 PM 26.6 °F 21.2 °F 21.2 °F 80% 30.66 in 10.0 mi West 4.6 mph - N/A   Clear
6:55 PM 26.6 °F 20.0 °F 21.2 °F 80% 30.66 in 10.0 mi West 5.8 mph - N/A   Clear
7:15 PM 24.8 °F 17.9 °F 21.2 °F 86% 30.66 in 10.0 mi West 5.8 mph - N/A   Clear
7:35 PM 26.6 °F 19.1 °F 21.2 °F 80% 30.66 in 10.0 mi WNW 6.9 mph - N/A   Clear
7:55 PM 26.6 °F 17.5 °F 21.2 °F 80% 30.65 in 10.0 mi WNW 9.2 mph - N/A   Clear
8:15 PM 24.8 °F 16.1 °F 19.4 °F 80% 30.66 in 10.0 mi WNW 8.1 mph - N/A   Clear
8:35 PM 24.8 °F 19.1 °F 19.4 °F 80% 30.66 in 10.0 mi West 4.6 mph - N/A   Clear
8:55 PM 24.8 °F 16.9 °F 19.4 °F 80% 30.65 in 10.0 mi West 6.9 mph - N/A   Clear
9:15 PM 24.8 °F 17.9 °F 19.4 °F 80% 30.65 in 10.0 mi West 5.8 mph - N/A   Clear
9:35 PM 24.8 °F 16.9 °F 19.4 °F 80% 30.66 in 10.0 mi West 6.9 mph - N/A   Clear
9:55 PM 24.8 °F 17.9 °F 19.4 °F 80% 30.66 in 10.0 mi West 5.8 mph - N/A   Clear
10:15 PM 23.0 °F 15.8 °F 19.4 °F 86% 30.66 in 10.0 mi West 5.8 mph - N/A   Clear
10:35 PM 23.0 °F 17.0 °F 17.6 °F 80% 30.65 in 10.0 mi West 4.6 mph - N/A   Clear
10:55 PM 21.2 °F 14.9 °F 17.6 °F 86% 30.65 in 10.0 mi West 4.6 mph - N/A   Clear
11:15 PM 23.0 °F 15.8 °F 17.6 °F 80% 30.65 in 10.0 mi West 5.8 mph - N/A   Clear
11:35 PM 23.0 °F 17.0 °F 17.6 °F 80% 30.65 in 10.0 mi West 4.6 mph - N/A   Clear
11:55 PM 23.0 °F 14.7 °F 17.6 °F 80% 30.64 in 10.0 mi WSW 6.9 mph - N/A   Clear